{"data":{"norad_id":69504,"intl_designator":"2026-132C","name":"BRO-22","alt_names":[],"object_type":"PAYLOAD","status":"ACTIVE","operator":null,"country":"FR","launch_date":"2026-06-12","launch_site_code":"TANSC","launch_vehicle":null,"mission":null,"orbit_class":"UNKNOWN","rcs_meters":null,"size_class":null,"mass_kg":null,"dimensions":null,"purposes":[],"wikipedia_slug":null,"has_3d_model":false,"image_url":null,"decayed_at":null,"tle_current":{"epoch":"2026-09-20T03:41:50.364960Z","epoch_age_seconds":63293,"freshness":"FRESH","line1":"1 69504U 26132C   26263.15405515 -.00000253  00000+0 -15509-4 0  9998","line2":"2 69504  97.6777 325.6138 0017357 310.6334  49.3379 14.99939778 15018","mean_motion":14.99939778,"eccentricity":0.0017357,"inclination_deg":97.6777,"raan_deg":325.6138,"arg_perigee_deg":310.6334,"mean_anomaly_deg":49.3379,"bstar":-1.5509e-5,"rev_number":1501,"period_min":96.003854362745,"perigee_km":555.02742097394,"apogee_km":579.13705503675,"semimajor_km":6945.2192380053,"source":"CELESTRAK","updated_at":"2026-09-20T09:00:24.938017Z"}}}